Showing default

COSMOS 2552, 49503

Orbit data source: Space-Track

COSMOS 2552, 49503 is a payload satellite owned by VVKO VKS (CIS) in HEO that was launched on Thu, 25 Nov 2021 UTC via a SOYUZ-2-1B launch vehicle from the Plesetsk Missile And Space Complex (PKMTR). Payload-class satellites include a variety of spacecraft equipped with specific instruments for various scientific and technological missions. These include communications satellites like Starlink; space stations such as the ISS; scientific satellites like the Hubble; Earth observation satellites from companies like Planet Labs, Umbra, and HawkEye 360; GPS; miniature CubeSats for education and research; and military/defense satellites.

Loading next visibility...
Identifier
49503, 2021-113A
Orbit
HEO
Country
Flag of CISCIS
Related business
Manufacturer
RKKE/KOMET
Mission
Operational Defense Early Warn
Bus & Motor
14F142 EKS, Unknown motor
Mass
2,550 kg wet, ~2,000 kg dry
Launch date (UTC)
2021-11-25 (5 years ago)
Launch vehicle
SOYUZ-2-1B
Launch site
Plesetsk Missile And Space Complex (PKMTR)
Object type
Payload
Rocket body
Debris
Shape & HBR
Box + 2 Pan, 5.0 m
Radar Cross Section
14.304 m², Large (>1 m²)

Expand to show TLE details & history
Last TLE update: 2 days ago

TLE from 2 days ago
0 COSMOS 2552
1 49503U 21113A   26171.92752245 -.00000169  00000-0  00000+0 0  9998
2 49503  62.8379 207.0752 6432564 272.4899  20.7123  2.00632292 33470
Epoch: 2026-06-20T22:15Z
TLE epoch observation values (Epoch: 2026-06-20T22:15:37.939Z)
Latitude
-0.0001°
Longitude
-35.94635°
Altitude
8,788.373 km
Speed
6.128 km/s
True Right ascension
13h 48m 23s
True Declination
0° 00' 00"
Sunlit
Object was in daylight at epoch
Visualization orbit readout
Latitude
Unknown
Longitude
Unknown
Altitude
Unknown
Speed
Unknown
Apparent Right ascension
Unknown
Apparent Declination
Unknown
Sunlit
N/A
Visualization observer readout
Local Sidereal Time
21:25:56
Azimuth
Unknown
Elevation
Unknown
Doppler factor
Unknown
Orbital elements
Apogee altitude
37,256.251 km
Perigee altitude
3,094.693 km
Semi-major axis
26,553.609 km
Eccentricity
0.64326
Inclination
62.8379°
RAAN
207.0752°
Arg. of periapsis
272.4899°
True anomaly
87.63538°
Mean anomaly
20.7123°
Eccentric anomaly
48.17806°
Mean motion
0.5016 °/min
Orbital period
717.7 mins
BSTAR
0
Loading maneuver chart data...
Computing Atmospheric mass density...
Loading historical data...
Loading historical data...
Loading historical data...
Loading historical data...
Loading historical data...
Loading historical data...
Loading historical data...
Other satellites on launch #113 in the year 2021 (2021-11-25 UTC)

Documentation

Showing up to 5 results
|